GW6878 Weather Reports


Display with metric or nautical units.
time (UTC)temp
F
wind
direction
speed
MPH
gust
MPH
rain 1hr
in
rain 24hr
in
rain mn
in
humidity
%
barometer
mb
20260506051003 59 346 4.0 8.0 0.00 0.00 0.00 55 1015.0
20260506050503 59 344 4.0 10.0 0.00 0.00 0.00 55 1015.0
20260506044503 59 344 5.0 10.0 0.00 0.00 0.00 55 1014.7
20260506044216 59 346 5.0 10.0 0.00 0.00 0.00 56 1014.7
20260506043717 60 355 4.0 9.0 0.00 0.00 0.00 56 1014.6
20260506043003 60 348 5.0 12.0 0.00 0.00 0.00 54 1014.5
20260506042503 61 339 6.0 12.0 0.00 0.00 0.00 52 1014.5
20260506042003 62 334 7.0 12.0 0.00 0.00 0.00 52 1014.6
20260506041503 62 334 6.0 14.0 0.00 0.00 0.00 52 1014.5
20260506041003 62 338 6.0 14.0 0.00 0.00 0.00 53 1014.5
20260506040503 62 339 6.0 12.0 0.00 0.00 0.00 52 1014.5
20260506040003 62 338 5.0 12.0 0.00 0.00 0.00 52 1014.4
20260506035717 62 338 6.0 12.0 0.00 0.00 0.00 52 1014.3
20260506035218 62 335 6.0 12.0 0.00 0.00 0.00 52 1014.2
20260506034503 63 328 7.0 12.0 0.00 0.00 0.00 51 1014.1
20260506034003 63 327 7.0 12.0 0.00 0.00 0.00 50 1014.0
20260506033503 63 329 7.0 12.0 0.00 0.00 0.00 50 1013.9
20260506033004 63 326 7.0 13.0 0.00 0.00 0.00 50 1013.8
20260506032718 64 326 7.0 14.0 0.00 0.00 0.00 50 1013.8
20260506032003 64 323 7.0 14.0 0.00 0.00 0.00 49 1013.7
20260506031503 64 319 7.0 15.0 0.00 0.00 0.00 49 1013.6
20260506031003 64 322 7.0 15.0 0.00 0.00 0.00 48 1013.5
20260506030503 65 325 7.0 17.0 0.00 0.00 0.00 48 1013.4
20260506030003 65 321 7.0 17.0 0.00 0.00 0.00 48 1013.3
20260506025716 65 321 6.0 15.0 0.00 0.00 0.00 48 1013.2
20260506025003 66 322 5.0 14.0 0.00 0.00 0.00 47 1013.1
20260506024503 66 321 6.0 11.0 0.00 0.00 0.00 46 1013.0
20260506024219 66 317 6.0 14.0 0.00 0.00 0.00 46 1012.9
20260506023503 67 313 7.0 15.0 0.00 0.00 0.00 45 1012.8
20260506023003 68 315 6.0 15.0 0.00 0.00 0.00 44 1012.8
20260506022503 68 312 5.0 13.0 0.00 0.00 0.00 44 1012.8
20260506022219 68 310 6.0 13.0 0.00 0.00 0.00 44 1012.8
20260506021503 69 308 6.0 13.0 0.00 0.00 0.00 43 1012.7
20260506021003 69 311 5.0 12.0 0.00 0.00 0.00 43 1012.6
20260506020718 69 308 6.0 15.0 0.00 0.00 0.00 42 1012.5
20260506020219 69 304 7.0 15.0 0.00 0.00 0.00 41 1012.5
20260506015503 70 307 6.0 18.0 0.00 0.00 0.00 41 1012.4
20260506015003 70 308 5.0 12.0 0.00 0.00 0.00 40 1012.4
20260506014503 71 310 7.0 16.0 0.00 0.00 0.00 40 1012.4
20260506014003 71 306 8.0 16.0 0.00 0.00 0.00 39 1012.4
20260506013503 71 305 7.0 16.0 0.00 0.00 0.00 39 1012.4
20260506013217 72 305 7.0 16.0 0.00 0.00 0.00 38 1012.4
20260506012503 72 305 7.0 15.0 0.00 0.00 0.00 38 1012.3
20260506012003 73 305 7.0 16.0 0.00 0.00 0.00 36 1012.3
20260506011503 73 310 6.0 16.0 0.00 0.00 0.00 36 1012.3
20260506011003 73 311 5.0 12.0 0.00 0.00 0.00 35 1012.2
20260506010503 74 307 5.0 14.0 0.00 0.00 0.00 33 1012.2
20260506010218 74 301 6.0 18.0 0.00 0.00 0.00 33 1012.1
20260506005503 74 306 7.0 18.0 0.00 0.00 0.00 32 1012.1
20260506005216 74 309 7.0 14.0 0.00 0.00 0.00 32 1012.1
20260506004504 74 315 5.0 15.0 0.00 0.00 0.00 32 1012.0
20260506004003 72 311 4.0 15.0 0.00 0.00 0.00 32 1012.0
20260506003503 72 292 3.0 12.0 0.00 0.00 0.00 32 1011.9
20260506003003 72 297 3.0 8.0 0.00 0.00 0.00 31 1011.8
20260506002503 72 300 4.0 10.0 0.00 0.00 0.00 31 1011.9
20260506002003 72 310 4.0 10.0 0.00 0.00 0.00 30 1011.8
20260506001503 72 331 3.0 10.0 0.00 0.00 0.00 30 1011.8
20260506001216 72 342 3.0 10.0 0.00 0.00 0.00 30 1011.8
20260506000717 72 323 3.0 8.0 0.00 0.00 0.00 30 1011.8
20260506000003 73 309 3.0 7.0 0.00 0.00 0.00 29 1011.8
20260505235503 74 325 4.0 12.0 0.00 0.00 0.00 28 1011.8
20260505235003 75 334 5.0 13.0 0.00 0.00 0.00 28 1011.8
20260505234504 76 335 5.0 13.0 0.00 0.00 0.00 27 1011.8
20260505234218 77 339 5.0 9.0 0.00 0.00 0.00 28 1011.8
20260505233719 74 346 5.0 11.0 0.00 0.00 0.00 28 1011.8
20260505233003 74 356 5.0 11.0 0.00 0.00 0.00 28 1011.8
20260505232503 75 353 6.0 12.0 0.00 0.00 0.00 27 1011.8
20260505232003 75 348 5.0 12.0 0.00 0.00 0.00 28 1011.7
20260505231503 74 360 3.0 9.0 0.00 0.00 0.00 29 1011.8
20260505231003 72 354 3.0 9.0 0.00 0.00 0.00 29 1011.8
20260505230503 72 350 4.0 9.0 0.00 0.00 0.00 29 1011.8
20260505230003 72 359 3.0 8.0 0.00 0.00 0.00 29 1011.8
20260505225503 72 7 3.0 8.0 0.00 0.00 0.00 28 1011.9
20260505225003 72 23 3.0 8.0 0.00 0.00 0.00 28 1011.9
20260505224503 73 42 3.0 6.0 0.00 0.00 0.00 28 1011.9
20260505224003 73 15 3.0 8.0 0.00 0.00 0.00 28 1011.9
20260505223719 73 356 4.0 8.0 0.00 0.00 0.00 27 1011.9
20260505223003 75 8 3.0 8.0 0.00 0.00 0.00 25 1011.9
20260505222503 76 40 3.0 8.0 0.00 0.00 0.00 25 1011.9
20260505222003 77 28 5.0 10.0 0.00 0.00 0.00 26 1011.9
20260505221503 76 24 4.0 10.0 0.00 0.00 0.00 28 1012.0
20260505221003 75 50 3.0 10.0 0.00 0.00 0.00 28 1012.0
20260505220716 76 50 3.0 10.0 0.00 0.00 0.00 28 1012.0
20260505220003 74 17 5.0 9.0 0.00 0.00 0.00 28 1012.1
20260505215503 76 1 5.0 12.0 0.00 0.00 0.00 27 1012.1
20260505215003 76 5 4.0 12.0 0.00 0.00 0.00 26 1012.1
20260505214503 75 20 5.0 12.0 0.00 0.00 0.00 27 1012.1
20260505214003 77 25 5.0 12.0 0.00 0.00 0.00 26 1012.2
20260505213503 74 23 5.0 16.0 0.00 0.00 0.00 30 1012.2
20260505213003 74 27 6.0 16.0 0.00 0.00 0.00 29 1012.2
20260505212716 75 25 5.0 16.0 0.00 0.00 0.00 27 1012.1
20260505212217 74 25 3.0 12.0 0.00 0.00 0.00 26 1012.1
20260505211503 76 23 4.0 10.0 0.00 0.00 0.00 26 1012.2
20260505211003 74 9 4.0 10.0 0.00 0.00 0.00 28 1012.2
20260505210503 74 352 5.0 12.0 0.00 0.00 0.00 30 1012.3
20260505210217 75 347 6.0 12.0 0.00 0.00 0.00 30 1012.4
20260505205503 73 342 5.0 12.0 0.00 0.00 0.00 28 1012.4
20260505205003 73 351 4.0 12.0 0.00 0.00 0.00 29 1012.4
20260505204503 74 360 5.0 10.0 0.00 0.00 0.00 27 1012.5
20260505204217 72 358 4.0 9.0 0.00 0.00 0.00 29 1012.5
20260505203718 73 12 4.0 13.0 0.00 0.00 0.00 29 1012.5
20260505203003 74 35 5.0 13.0 0.00 0.00 0.00 29 1012.6
20260505202503 73 46 3.0 11.0 0.00 0.00 0.00 30 1012.6
20260505202003 73 31 3.0 11.0 0.00 0.00 0.00 31 1012.6
20260505201503 71 7 4.0 11.0 0.00 0.00 0.00 32 1012.7
20260505201003 72 358 5.0 14.0 0.00 0.00 0.00 30 1012.7
20260505200503 73 353 4.0 14.0 0.00 0.00 0.00 32 1012.7
20260505200003 72 23 4.0 11.0 0.00 0.00 0.00 32 1012.8
20260505195718 72 29 5.0 11.0 0.00 0.00 0.00 32 1012.6
20260505195003 73 19 5.0 11.0 0.00 0.00 0.00 31 1012.6
20260505194503 72 12 5.0 11.0 0.00 0.00 0.00 31 1012.7
20260505194003 70 3 3.0 10.0 0.00 0.00 0.00 34 1012.6
20260505193503 70 359 3.0 10.0 0.00 0.00 0.00 34 1012.7
20260505193003 71 3 3.0 8.0 0.00 0.00 0.00 32 1012.6
20260505192503 70 29 3.0 8.0 0.00 0.00 0.00 35 1012.6
20260505192003 70 47 3.0 8.0 0.00 0.00 0.00 35 1012.6
20260505191717 70 46 3.0 8.0 0.00 0.00 0.00 34 1012.7
20260505191004 70 63 2.0 8.0 0.00 0.00 0.00 36 1012.6
20260505190503 69 177 3.0 7.0 0.00 0.00 0.00 36 1012.6
20260505190004 71 193 4.0 8.0 0.00 0.00 0.00 35 1012.5
20260505185503 71 234 3.0 8.0 0.00 0.00 0.00 37 1012.4
20260505185003 68 257 3.0 7.0 0.00 0.00 0.00 39 1012.5
20260505184503 66 248 4.0 11.0 0.00 0.00 0.00 41 1012.5
20260505184003 69 244 5.0 11.0 0.00 0.00 0.00 38 1012.6
20260505183717 70 233 5.0 9.0 0.00 0.00 0.00 38 1012.6
20260505183003 69 230 5.0 10.0 0.00 0.00 0.00 39 1012.7
20260505182719 68 229 6.0 11.0 0.00 0.00 0.00 40 1012.7
20260505182003 67 223 5.0 11.0 0.00 0.00 0.00 45 1012.7
20260505181717 67 224 5.0 10.0 0.00 0.00 0.00 42 1012.8
20260505181003 65 224 4.0 9.0 0.00 0.00 0.00 49 1012.8
20260505180719 65 218 4.0 9.0 0.00 0.00 0.00 47 1012.8
20260505180216 64 217 4.0 9.0 0.00 0.00 0.00 51 1012.8
20260505175503 65 226 4.0 7.0 0.00 0.00 0.00 49 1012.8
20260505175003 64 224 4.0 8.0 0.00 0.00 0.00 51 1012.8
20260505174503 63 228 4.0 8.0 0.00 0.00 0.00 52 1012.8
20260505174003 63 239 3.0 5.0 0.00 0.00 0.00 51 1012.8
20260505173503 63 252 2.0 5.0 0.00 0.00 0.00 53 1012.8
20260505173003 61 239 3.0 6.0 0.00 0.00 0.00 54 1012.8
20260505172719 61 230 3.0 6.0 0.00 0.00 0.00 54 1012.8
20260505172003 61 245 3.0 7.0 0.00 0.00 0.00 54 1012.9
20260505171503 60 245 3.0 7.0 0.00 0.00 0.00 54 1012.9
20260505171003 59 214 3.0 5.0 0.00 0.00 0.00 57 1012.9
20260505170503 59 190 3.0 6.0 0.00 0.00 0.00 55 1012.9
20260505170003 58 183 3.0 6.0 0.00 0.00 0.00 59 1012.8
20260505165503 58 207 3.0 5.0 0.00 0.00 0.00 58 1012.9
20260505165003 57 220 2.0 5.0 0.00 0.00 0.00 61 1012.9
20260505164503 56 205 2.0 4.0 0.00 0.00 0.00 63 1012.9
20260505164003 55 209 3.0 5.0 0.00 0.00 0.00 65 1012.8
20260505163503 56 208 3.0 5.0 0.00 0.00 0.00 64 1012.9
20260505163003 55 186 3.0 5.0 0.00 0.00 0.00 67 1012.8
20260505162503 55 177 3.0 5.0 0.00 0.00 0.00 67 1012.9
20260505162219 54 168 3.0 5.0 0.00 0.00 0.00 68 1012.9
20260505161503 53 183 2.0 6.0 0.00 0.00 0.00 70 1012.8
20260505161003 54 190 2.0 5.0 0.00 0.00 0.00 68 1012.9
20260505160503 53 181 3.0 5.0 0.00 0.00 0.00 68 1012.8
20260505153003 51 162 2.0 5.0 0.00 0.00 0.00 74 1012.7
20260505152718 50 159 2.0 5.0 0.00 0.00 0.00 74 1012.7
20260505152003 50 161 2.0 6.0 0.00 0.00 0.00 75 1012.6
20260505151503 50 157 2.0 6.0 0.00 0.00 0.00 75 1012.6
20260505151003 50 144 2.0 4.0 0.00 0.00 0.00 75 1012.6
20260505150503 49 112 1.0 3.0 0.00 0.00 0.00 75 1012.5
20260505140503 47 62 2.0 3.0 0.00 0.00 0.00 78 1012.1
20260505130218 45 45 1.0 2.0 0.00 0.00 0.00 78 1011.5
20260505125003 46 9 1.0 3.0 0.00 0.00 0.00 56 1011.4
20260505124717 47 9 2.0 3.0 0.00 0.00 0.00 56 1011.4
20260505124003 47 5 2.0 4.0 0.00 0.00 0.00 55 1011.3
20260505123503 47 353 2.0 4.0 0.00 0.00 0.00 56 1011.2
20260505123003 47 346 2.0 4.0 0.00 0.00 0.00 57 1011.2
20260505122717 46 342 2.0 4.0 0.00 0.00 0.00 58 1011.2
20260505122003 46 357 3.0 5.0 0.00 0.00 0.00 61 1011.2
20260505121719 46 8 3.0 5.0 0.00 0.00 0.00 63 1011.2
20260505121003 45 61 2.0 4.0 0.00 0.00 0.00 77 1011.2
20260505120503 45 74 1.0 3.0 0.00 0.00 0.00 80 1011.1
20260505120004 45 71 1.0 2.0 0.00 0.00 0.00 80 1011.1
20260505115503 45 71 0.0 2.0 0.00 0.00 0.00 79 1011.1
20260505115003 45 71 0.0 2.0 0.00 0.00 0.00 79 1011.1
20260505114503 46 66 1.0 2.0 0.00 0.00 0.00 76 1011.1
20260505114003 46 53 1.0 2.0 0.00 0.00 0.00 74 1011.1
20260505113718 46 24 1.0 3.0 0.00 0.00 0.00 71 1011.0
20260505113003 47 13 2.0 4.0 0.00 0.00 0.00 57 1010.9
20260505112716 47 19 2.0 4.0 0.00 0.00 0.00 57 1010.9
20260505112003 47 23 2.0 3.0 0.00 0.00 0.00 66 1010.9
20260505111503 48 13 3.0 4.0 0.00 0.00 0.00 59 1010.9
20260505111003 49 13 3.0 4.0 0.00 0.00 0.00 54 1010.9
20260505110503 49 10 3.0 5.0 0.00 0.00 0.00 53 1010.9
20260505102003 52 345 4.0 10.0 0.00 0.00 0.00 51 1010.6
20260505101503 52 352 5.0 11.0 0.00 0.00 0.00 50 1010.5
20260505101219 52 352 5.0 13.0 0.00 0.00 0.00 50 1010.5
20260505100503 52 350 6.0 13.0 0.00 0.00 0.00 50 1010.3
20260505100003 52 352 6.0 13.0 0.00 0.00 0.00 50 1010.3
20260505095503 52 351 6.0 13.0 0.00 0.00 0.00 50 1010.2
20260505095003 52 353 6.0 12.0 0.00 0.00 0.00 50 1010.1
20260505094503 52 355 5.0 11.0 0.00 0.00 0.00 50 1010.2
20260505094003 52 351 5.0 14.0 0.00 0.00 0.00 50 1010.2
20260505093503 53 355 5.0 14.0 0.00 0.00 0.00 49 1010.2
20260505093004 53 357 7.0 13.0 0.00 0.00 0.00 49 1010.1
20260505092716 53 357 7.0 13.0 0.00 0.00 0.00 48 1010.1
20260505092003 53 354 6.0 14.0 0.00 0.00 0.00 49 1010.0
20260505091503 53 357 7.0 14.0 0.00 0.00 0.00 49 1009.9
20260505091003 53 358 7.0 14.0 0.00 0.00 0.00 49 1010.0
20260505090503 53 357 7.0 14.0 0.00 0.00 0.00 49 1009.9
20260505090003 53 359 8.0 15.0 0.00 0.00 0.00 49 1010.0
20260505085717 53 1 9.0 17.0 0.00 0.00 0.00 48 1010.0
20260505085003 53 360 9.0 17.0 0.00 0.00 0.00 48 1009.8
20260505084719 53 1 10.0 20.0 0.00 0.00 0.00 48 1009.7
20260505084003 54 4 10.0 20.0 0.00 0.00 0.00 48 1009.8
20260505083503 54 2 9.0 17.0 0.00 0.00 0.00 48 1009.8
20260505083218 54 2 9.0 16.0 0.00 0.00 0.00 48 1009.9
20260505082503 54 357 8.0 16.0 0.00 0.00 0.00 47 1009.9
20260505082003 54 354 9.0 18.0 0.00 0.00 0.00 47 1009.9
20260505081503 55 360 10.0 20.0 0.00 0.00 0.00 47 1009.9
20260505081003 55 3 11.0 20.0 0.00 0.00 0.00 47 1009.8
20260505080503 55 1 11.0 19.0 0.00 0.00 0.00 46 1009.7
20260505080003 55 357 12.0 19.0 0.00 0.00 0.00 47 1009.6
20260505075503 55 352 11.0 19.0 0.00 0.00 0.00 47 1009.5
20260505075218 55 352 11.0 21.0 0.00 0.00 0.00 47 1009.6
20260505074719 55 355 10.0 21.0 0.00 0.00 0.00 47 1009.6
20260505074004 55 357 11.0 20.0 0.00 0.00 0.00 47 1009.6
20260505073717 55 357 11.0 20.0 0.00 0.00 0.00 47 1009.6
20260505073218 55 355 10.0 19.0 0.00 0.00 0.00 47 1009.6
20260505072719 55 358 10.0 19.0 0.00 0.00 0.00 47 1009.6
20260505072216 55 359 10.0 19.0 0.00 0.00 0.00 47 1009.6
20260505071503 55 355 9.0 20.0 0.00 0.00 0.00 47 1009.6
20260505071003 56 353 10.0 19.0 0.00 0.00 0.00 46 1009.5
20260505070503 56 354 10.0 19.0 0.00 0.00 0.00 46 1009.5
20260505070003 56 357 10.0 20.0 0.00 0.00 0.00 46 1009.4
20260505065717 56 356 10.0 20.0 0.00 0.00 0.00 46 1009.5
20260505065003 56 355 10.0 19.0 0.00 0.00 0.00 46 1009.5
20260505064503 56 356 11.0 19.0 0.00 0.00 0.00 46 1009.5
20260505064003 57 359 10.0 19.0 0.00 0.00 0.00 46 1009.5
20260505063503 57 358 9.0 19.0 0.00 0.00 0.00 46 1009.5
20260505063003 57 357 9.0 20.0 0.00 0.00 0.00 46 1009.5
20260505062503 57 355 10.0 20.0 0.00 0.00 0.00 46 1009.5
20260505062003 57 355 10.0 19.0 0.00 0.00 0.00 46 1009.6
20260505061503 57 357 9.0 17.0 0.00 0.00 0.00 46 1009.5
20260505061003 57 354 7.0 16.0 0.00 0.00 0.00 47 1009.6
20260505060503 57 353 7.0 13.0 0.00 0.00 0.00 47 1009.6
20260505060003 57 355 8.0 17.0 0.00 0.00 0.00 48 1009.6
20260505055716 57 354 8.0 17.0 0.00 0.00 0.00 48 1009.6